Simultaneous Nadir Overpasses (SNOs) Predictions

Prediction of SNOs between TERRA and METOP-C Satellite Orbit:

Table of predicted SNOs for the next 14.0 days since TLE Epoch: 5/9/2020
Index Date (TERRA) Time (TERRA) Lat,Lon (TERRA) SZA (TERRA ) Date (METOP-C) Time (METOP-C) Lat,Lon (METOP-C) SZA (METOP-C ) Distance(km) Time Diff (sec)
1 05/09/2020 03:35:21 -81.31, -6.33 113.14 05/09/2020 03:34:57 -81.31, -6.24 113.14 1.45 24
2 05/09/2020 04:24:47 81.32, 161.45 66.88 05/09/2020 04:25:37 81.31, 161.44 66.90 0.79 50
3 05/11/2020 23:09:37 -81.30, 59.83 113.90 05/11/2020 23:09:21 -81.30, 59.77 113.91 1.16 16
4 05/11/2020 23:59:03 81.30,-132.42 66.12 05/12/2020 00:00:01 81.30,-132.62 66.12 3.32 58
5 05/14/2020 18:43:51 -81.30, 126.31 114.57 05/14/2020 18:43:43 -81.30, 126.16 114.59 2.63 8
6 05/14/2020 19:33:17 81.30, -65.97 65.44 05/14/2020 19:34:22 81.31, -65.91 65.48 1.22 65
7 05/17/2020 13:28:48 81.10, 21.80 64.29 05/17/2020 13:27:34 81.23, 21.60 64.32 14.90 74
8 05/17/2020 14:18:06 -81.30,-167.25 115.21 05/17/2020 14:18:05 -81.31,-167.08 115.18 2.99 1
9 05/17/2020 15:07:31 81.32, 0.82 64.85 05/17/2020 15:08:44 81.31, 0.78 64.88 1.14 73
10 05/20/2020 09:02:54 81.29, 91.51 64.20 05/20/2020 09:01:48 81.30, 91.39 64.15 1.89 66




NCC Satellite Simultaneous Nadir Overpasses (SNOs) Prediction Service
